Time,TemperatureF,DewpointF,PressureIn,WindDirection,WindDirectionDegrees,WindSpeedMPH,WindSpeedGustMPH,Humidity,HourlyPrecipIn,Conditions,Clouds,dailyrainin,SoftwareType,DateUTC
2013-06-15 00:01:00,56.0,46.0,29.74,West,270,1.0,3.0,68,0.00,,,0.00,Rainwise IP-100,2013-06-15 04:01:00,
2013-06-15 00:06:00,56.0,40.0,29.74,SW,225,0.0,4.0,56,0.00,,,0.00,Rainwise IP-100,2013-06-15 04:06:00,
2013-06-15 00:11:00,56.0,45.0,29.74,West,270,0.0,4.0,67,0.00,,,0.00,Rainwise IP-100,2013-06-15 04:11:00,
2013-06-15 00:16:00,56.0,40.0,29.74,West,270,0.0,2.0,55,0.00,,,0.00,Rainwise IP-100,2013-06-15 04:16:00,
2013-06-15 00:21:00,56.0,40.0,29.74,West,270,0.0,4.0,56,0.00,,,0.00,Rainwise IP-100,2013-06-15 04:21:00,
2013-06-15 00:27:00,56.0,39.0,29.74,SW,225,0.0,3.0,54,0.00,,,0.00,Rainwise IP-100,2013-06-15 04:27:00,
2013-06-15 00:31:00,56.0,39.0,29.74,WSW,247,1.0,2.0,54,0.00,,,0.00,Rainwise IP-100,2013-06-15 04:31:00,
2013-06-15 00:37:00,56.0,39.0,29.74,NW,315,0.0,4.0,53,0.00,,,0.00,Rainwise IP-100,2013-06-15 04:37:00,
2013-06-15 00:42:00,56.0,39.0,29.75,WSW,247,0.0,2.0,53,0.00,,,0.00,Rainwise IP-100,2013-06-15 04:42:00,
2013-06-15 00:47:00,56.0,38.0,29.75,WNW,292,0.0,1.0,52,0.00,,,0.00,Rainwise IP-100,2013-06-15 04:47:00,
2013-06-15 00:52:00,56.0,39.0,29.75,West,270,0.0,3.0,53,0.00,,,0.00,Rainwise IP-100,2013-06-15 04:52:00,
2013-06-15 00:57:00,56.0,38.0,29.75,WNW,292,0.0,2.0,51,0.00,,,0.00,Rainwise IP-100,2013-06-15 04:57:00,
2013-06-15 01:02:00,56.0,38.0,29.75,SW,225,0.0,3.0,51,0.00,,,0.00,Rainwise IP-100,2013-06-15 05:02:00,
2013-06-15 01:07:00,56.0,38.0,29.75,WSW,247,1.0,5.0,50,0.00,,,0.00,Rainwise IP-100,2013-06-15 05:07:00,
2013-06-15 01:12:00,56.0,38.0,29.74,WNW,292,0.0,3.0,51,0.00,,,0.00,Rainwise IP-100,2013-06-15 05:12:00,
2013-06-15 01:17:00,57.0,38.0,29.74,NW,315,0.0,3.0,49,0.00,,,0.00,Rainwise IP-100,2013-06-15 05:17:00,
2013-06-15 01:22:00,57.0,38.0,29.74,West,270,0.0,4.0,49,0.00,,,0.00,Rainwise IP-100,2013-06-15 05:22:00,
2013-06-15 01:27:00,57.0,38.0,29.74,West,270,1.0,4.0,48,0.00,,,0.00,Rainwise IP-100,2013-06-15 05:27:00,
2013-06-15 01:32:00,57.0,38.0,29.74,WNW,292,5.0,5.0,48,0.00,,,0.00,Rainwise IP-100,2013-06-15 05:32:00,
2013-06-15 01:37:00,57.0,37.0,29.74,WNW,292,2.0,5.0,47,0.00,,,0.00,Rainwise IP-100,2013-06-15 05:37:00,
2013-06-15 01:43:00,58.0,38.0,29.74,WNW,292,0.0,7.0,46,0.00,,,0.00,Rainwise IP-100,2013-06-15 05:43:00,
2013-06-15 01:48:00,58.0,38.0,29.74,WNW,292,0.0,4.0,46,0.00,,,0.00,Rainwise IP-100,2013-06-15 05:48:00,
2013-06-15 01:53:00,58.0,38.0,29.74,WNW,292,0.0,2.0,46,0.00,,,0.00,Rainwise IP-100,2013-06-15 05:53:00,
2013-06-15 01:58:00,58.0,38.0,29.74,WNW,292,7.0,7.0,46,0.00,,,0.00,Rainwise IP-100,2013-06-15 05:58:00,
2013-06-15 02:03:00,59.0,38.0,29.74,WNW,292,1.0,8.0,46,0.00,,,0.00,Rainwise IP-100,2013-06-15 06:03:00,
2013-06-15 02:08:00,58.0,38.0,29.74,West,270,0.0,6.0,46,0.00,,,0.00,Rainwise IP-100,2013-06-15 06:08:00,
2013-06-15 02:13:00,59.0,38.0,29.74,WSW,247,0.0,3.0,46,0.00,,,0.00,Rainwise IP-100,2013-06-15 06:13:00,
2013-06-15 02:18:00,59.0,38.0,29.74,West,270,0.0,3.0,46,0.00,,,0.00,Rainwise IP-100,2013-06-15 06:18:00,
2013-06-15 02:23:00,59.0,38.0,29.74,NW,315,1.0,6.0,46,0.00,,,0.00,Rainwise IP-100,2013-06-15 06:23:00,
2013-06-15 02:28:00,59.0,38.0,29.74,NW,315,1.0,4.0,46,0.00,,,0.00,Rainwise IP-100,2013-06-15 06:28:00,
2013-06-15 02:33:00,60.0,40.0,29.75,NW,315,1.0,6.0,48,0.00,,,0.00,Rainwise IP-100,2013-06-15 06:33:00,
2013-06-15 02:38:00,60.0,41.0,29.75,NW,315,8.0,9.0,50,0.00,,,0.00,Rainwise IP-100,2013-06-15 06:38:00,
2013-06-15 02:43:00,60.0,42.0,29.74,NW,315,5.0,9.0,52,0.00,,,0.00,Rainwise IP-100,2013-06-15 06:43:00,
2013-06-15 02:48:00,61.0,44.0,29.74,WNW,292,1.0,8.0,54,0.00,,,0.00,Rainwise IP-100,2013-06-15 06:48:00,
2013-06-15 02:53:00,61.0,45.0,29.74,NW,315,2.0,10.0,55,0.00,,,0.00,Rainwise IP-100,2013-06-15 06:53:00,
2013-06-15 02:59:00,60.0,45.0,29.74,NW,315,1.0,11.0,57,0.00,,,0.00,Rainwise IP-100,2013-06-15 06:59:00,
2013-06-15 03:04:00,61.0,47.0,29.73,West,270,5.0,9.0,59,0.00,,,0.00,Rainwise IP-100,2013-06-15 07:04:00,
2013-06-15 03:09:00,61.0,47.0,29.73,West,270,2.0,9.0,59,0.00,,,0.00,Rainwise IP-100,2013-06-15 07:09:00,
2013-06-15 03:14:00,60.0,47.0,29.74,WNW,292,2.0,7.0,61,0.00,,,0.00,Rainwise IP-100,2013-06-15 07:14:00,
2013-06-15 03:19:00,60.0,47.0,29.74,WNW,292,0.0,8.0,61,0.00,,,0.00,Rainwise IP-100,2013-06-15 07:19:00,
2013-06-15 03:24:00,60.0,47.0,29.74,WNW,292,2.0,7.0,61,0.00,,,0.00,Rainwise IP-100,2013-06-15 07:24:00,
2013-06-15 03:29:00,60.0,46.0,29.74,NW,315,5.0,7.0,60,0.00,,,0.00,Rainwise IP-100,2013-06-15 07:29:00,
2013-06-15 03:34:00,60.0,46.0,29.75,NW,315,4.0,7.0,60,0.00,,,0.00,Rainwise IP-100,2013-06-15 07:34:00,
2013-06-15 03:39:00,60.0,46.0,29.75,NW,315,3.0,7.0,59,0.00,,,0.00,Rainwise IP-100,2013-06-15 07:39:00,
2013-06-15 03:44:00,60.0,46.0,29.75,NW,315,1.0,7.0,60,0.00,,,0.00,Rainwise IP-100,2013-06-15 07:44:00,
2013-06-15 03:49:00,60.0,46.0,29.75,NW,315,3.0,8.0,60,0.00,,,0.00,Rainwise IP-100,2013-06-15 07:49:00,
2013-06-15 03:54:00,60.0,47.0,29.76,NW,315,5.0,8.0,62,0.00,,,0.00,Rainwise IP-100,2013-06-15 07:54:00,
2013-06-15 03:59:00,61.0,47.5,29.76,NNW,337,4.0,9.0,62,0.00,,,0.00,Rainwise IP-100,2013-06-15 07:59:00,
2013-06-15 04:04:00,60.0,47.0,29.75,WNW,292,5.0,8.0,62,0.00,,,0.00,Rainwise IP-100,2013-06-15 08:04:00,
2013-06-15 04:09:00,61.0,47.5,29.75,NW,315,6.0,10.0,62,0.00,,,0.00,Rainwise IP-100,2013-06-15 08:09:00,
2013-06-15 04:15:00,61.0,47.5,29.76,WNW,292,5.0,12.0,62,0.00,,,0.00,Rainwise IP-100,2013-06-15 08:15:00,
2013-06-15 04:20:00,61.0,47.5,29.76,WNW,292,7.0,9.0,62,0.00,,,0.00,Rainwise IP-100,2013-06-15 08:20:00,
2013-06-15 04:25:00,61.0,49.0,29.76,NW,315,5.0,10.0,64,0.00,,,0.00,Rainwise IP-100,2013-06-15 08:25:00,
2013-06-15 04:30:00,61.0,47.5,29.76,WNW,292,4.0,9.0,62,0.00,,,0.00,Rainwise IP-100,2013-06-15 08:30:00,
2013-06-15 04:35:00,61.0,48.0,29.77,NW,315,4.0,9.0,63,0.00,,,0.00,Rainwise IP-100,2013-06-15 08:35:00,
2013-06-15 04:40:00,61.0,49.0,29.77,NW,315,2.0,8.0,64,0.00,,,0.00,Rainwise IP-100,2013-06-15 08:40:00,
2013-06-15 04:45:00,61.0,49.0,29.77,NW,315,2.0,9.0,64,0.00,,,0.00,Rainwise IP-100,2013-06-15 08:45:00,
2013-06-15 04:50:00,61.0,49.0,29.77,NNW,337,1.0,9.0,64,0.00,,,0.00,Rainwise IP-100,2013-06-15 08:50:00,
2013-06-15 04:55:00,61.0,49.0,29.78,NW,315,9.0,12.0,65,0.00,,,0.00,Rainwise IP-100,2013-06-15 08:55:00,
2013-06-15 05:00:00,61.0,50.0,29.78,NW,315,7.0,12.0,67,0.00,,,0.00,Rainwise IP-100,2013-06-15 09:00:00,
2013-06-15 05:05:00,61.0,50.0,29.78,NW,315,6.0,12.0,67,0.00,,,0.00,Rainwise IP-100,2013-06-15 09:05:00,
2013-06-15 05:10:00,61.0,53.5,29.79,NW,315,4.0,9.0,75,0.00,,,0.00,Rainwise IP-100,2013-06-15 09:10:00,
2013-06-15 05:15:00,61.0,50.0,29.79,WNW,292,4.0,8.0,67,0.00,,,0.00,Rainwise IP-100,2013-06-15 09:15:00,
2013-06-15 05:20:00,61.0,53.0,29.79,WNW,292,4.0,9.0,74,0.00,,,0.00,Rainwise IP-100,2013-06-15 09:20:00,
2013-06-15 05:25:00,61.0,50.0,29.79,WNW,292,0.0,7.0,66,0.00,,,0.00,Rainwise IP-100,2013-06-15 09:25:00,
2013-06-15 05:31:00,61.0,53.0,29.79,WNW,292,2.0,7.0,74,0.00,,,0.00,Rainwise IP-100,2013-06-15 09:31:00,
2013-06-15 05:36:00,61.0,50.0,29.79,NNW,337,1.0,8.0,67,0.00,,,0.00,Rainwise IP-100,2013-06-15 09:36:00,
2013-06-15 05:41:00,61.0,53.5,29.80,NW,315,6.0,7.0,75,0.00,,,0.00,Rainwise IP-100,2013-06-15 09:41:00,
2013-06-15 05:46:00,61.0,50.0,29.80,WNW,292,5.0,9.0,67,0.00,,,0.00,Rainwise IP-100,2013-06-15 09:46:00,
2013-06-15 05:51:00,61.0,53.5,29.80,NW,315,2.0,9.0,75,0.00,,,0.00,Rainwise IP-100,2013-06-15 09:51:00,
2013-06-15 05:56:00,61.0,50.5,29.80,NNW,337,5.0,10.0,68,0.00,,,0.00,Rainwise IP-100,2013-06-15 09:56:00,
2013-06-15 06:01:00,62.0,54.0,29.80,NW,315,2.0,8.0,75,0.00,,,0.00,Rainwise IP-100,2013-06-15 10:01:00,
2013-06-15 06:06:00,62.0,52.0,29.80,NW,315,3.0,9.0,69,0.00,,,0.00,Rainwise IP-100,2013-06-15 10:06:00,
2013-06-15 06:11:00,62.0,54.0,29.80,NW,315,5.0,9.0,75,0.00,,,0.00,Rainwise IP-100,2013-06-15 10:11:00,
2013-06-15 06:16:00,62.0,52.0,29.80,NNW,337,4.0,7.0,69,0.00,,,0.00,Rainwise IP-100,2013-06-15 10:16:00,
2013-06-15 06:21:00,63.0,55.0,29.80,North,360,5.0,10.0,76,0.00,,,0.00,Rainwise IP-100,2013-06-15 10:21:00,
2013-06-15 06:26:00,63.0,53.5,29.80,NW,315,10.0,12.0,71,0.00,,,0.00,Rainwise IP-100,2013-06-15 10:26:00,
2013-06-15 06:31:00,63.0,54.0,29.81,NNW,337,5.0,12.0,72,0.00,,,0.00,Rainwise IP-100,2013-06-15 10:31:00,
2013-06-15 06:36:00,63.0,54.0,29.81,NW,315,10.0,12.0,72,0.00,,,0.00,Rainwise IP-100,2013-06-15 10:36:00,
2013-06-15 06:41:00,63.0,53.5,29.81,NW,315,4.0,13.0,71,0.00,,,0.00,Rainwise IP-100,2013-06-15 10:41:00,
2013-06-15 06:47:00,63.0,53.5,29.81,NW,315,12.0,12.0,70,0.00,,,0.00,Rainwise IP-100,2013-06-15 10:47:00,
2013-06-15 06:52:00,63.0,54.0,29.82,NW,315,6.0,14.0,72,0.00,,,0.00,Rainwise IP-100,2013-06-15 10:52:00,
2013-06-15 06:57:00,63.0,54.0,29.82,WNW,292,8.0,13.0,72,0.00,,,0.00,Rainwise IP-100,2013-06-15 10:57:00,
2013-06-15 07:02:00,63.0,54.0,29.82,WNW,292,7.0,12.0,72,0.00,,,0.00,Rainwise IP-100,2013-06-15 11:02:00,
2013-06-15 07:07:00,63.0,54.0,29.82,NNW,337,6.0,10.0,72,0.00,,,0.00,Rainwise IP-100,2013-06-15 11:07:00,
2013-06-15 07:12:00,64.0,55.0,29.82,WNW,292,3.0,9.0,73,0.00,,,0.00,Rainwise IP-100,2013-06-15 11:12:00,
2013-06-15 07:17:00,64.0,55.0,29.82,NW,315,9.0,10.0,73,0.00,,,0.00,Rainwise IP-100,2013-06-15 11:17:00,
2013-06-15 07:22:00,64.0,55.0,29.82,NW,315,7.0,10.0,74,0.00,,,0.00,Rainwise IP-100,2013-06-15 11:22:00,
2013-06-15 07:27:00,65.0,56.5,29.82,North,360,3.0,10.0,74,0.00,,,0.00,Rainwise IP-100,2013-06-15 11:27:00,
2013-06-15 07:32:00,65.0,56.5,29.82,North,360,3.0,10.0,74,0.00,,,0.00,Rainwise IP-100,2013-06-15 11:32:00,
2013-06-15 07:37:00,65.0,56.5,29.82,NNW,337,7.0,11.0,74,0.00,,,0.00,Rainwise IP-100,2013-06-15 11:37:00,
2013-06-15 07:42:00,65.0,57.0,29.82,North,360,6.0,12.0,75,0.00,,,0.00,Rainwise IP-100,2013-06-15 11:42:00,
2013-06-15 07:47:00,65.0,57.0,29.82,North,360,8.0,12.0,76,0.00,,,0.00,Rainwise IP-100,2013-06-15 11:47:00,
2013-06-15 07:53:00,65.0,57.5,29.83,NW,315,6.0,13.0,77,0.00,,,0.00,Rainwise IP-100,2013-06-15 11:53:00,
2013-06-15 07:58:00,65.0,57.5,29.83,North,360,6.0,12.0,77,0.00,,,0.00,Rainwise IP-100,2013-06-15 11:58:00,
2013-06-15 08:03:00,65.0,57.5,29.83,NNW,337,10.0,13.0,77,0.00,,,0.00,Rainwise IP-100,2013-06-15 12:03:00,
2013-06-15 08:08:00,66.0,58.0,29.83,NNW,337,5.0,12.0,77,0.00,,,0.00,Rainwise IP-100,2013-06-15 12:08:00,
2013-06-15 08:13:00,66.0,58.0,29.83,North,360,3.0,12.0,77,0.00,,,0.00,Rainwise IP-100,2013-06-15 12:13:00,
2013-06-15 08:18:00,66.0,58.0,29.83,North,360,3.0,13.0,77,0.00,,,0.00,Rainwise IP-100,2013-06-15 12:18:00,
2013-06-15 08:23:00,66.0,59.0,29.84,North,360,7.0,13.0,78,0.00,,,0.00,Rainwise IP-100,2013-06-15 12:23:00,
2013-06-15 08:28:00,65.0,57.5,29.84,North,360,8.0,12.0,77,0.00,,,0.00,Rainwise IP-100,2013-06-15 12:28:00,
2013-06-15 08:33:00,66.0,59.0,29.85,North,360,4.0,10.0,78,0.00,,,0.00,Rainwise IP-100,2013-06-15 12:33:00,
2013-06-15 08:38:00,66.0,58.0,29.85,NNW,337,4.0,9.0,77,0.00,,,0.00,Rainwise IP-100,2013-06-15 12:38:00,
2013-06-15 08:43:00,66.0,59.0,29.85,NNW,337,2.0,9.0,78,0.00,,,0.00,Rainwise IP-100,2013-06-15 12:43:00,
2013-06-15 08:48:00,65.0,57.5,29.85,NNW,337,5.0,9.0,78,0.00,,,0.00,Rainwise IP-100,2013-06-15 12:48:00,
2013-06-15 08:53:00,66.0,59.0,29.86,NW,315,3.0,10.0,78,0.00,,,0.00,Rainwise IP-100,2013-06-15 12:53:00,
2013-06-15 08:58:00,65.0,57.5,29.86,NNW,337,2.0,11.0,78,0.00,,,0.00,Rainwise IP-100,2013-06-15 12:58:00,
2013-06-15 09:03:00,66.0,59.5,29.86,NNE,22,0.0,11.0,79,0.00,,,0.00,Rainwise IP-100,2013-06-15 13:03:00,
2013-06-15 09:09:00,66.0,59.5,29.86,NW,315,6.0,10.0,79,0.00,,,0.00,Rainwise IP-100,2013-06-15 13:09:00,
2013-06-15 09:14:00,66.0,59.5,29.87,NW,315,2.0,10.0,79,0.00,,,0.00,Rainwise IP-100,2013-06-15 13:14:00,
2013-06-15 09:19:00,67.0,60.5,29.87,NNW,337,7.0,10.0,79,0.00,,,0.00,Rainwise IP-100,2013-06-15 13:19:00,
2013-06-15 09:24:00,67.0,60.5,29.86,NNW,337,8.0,10.0,79,0.00,,,0.00,Rainwise IP-100,2013-06-15 13:24:00,
2013-06-15 09:29:00,67.0,60.5,29.86,NNE,22,7.0,10.0,79,0.00,,,0.00,Rainwise IP-100,2013-06-15 13:29:00,
2013-06-15 09:34:00,66.0,59.5,29.86,WNW,292,5.0,13.0,79,0.00,,,0.00,Rainwise IP-100,2013-06-15 13:34:00,
2013-06-15 09:39:00,67.0,60.5,29.86,NNW,337,7.0,12.0,79,0.00,,,0.00,Rainwise IP-100,2013-06-15 13:39:00,
2013-06-15 09:44:00,66.0,59.5,29.87,NNW,337,7.0,12.0,79,0.00,,,0.00,Rainwise IP-100,2013-06-15 13:44:00,
2013-06-15 09:49:00,66.0,59.5,29.87,NNW,337,6.0,12.0,79,0.00,,,0.00,Rainwise IP-100,2013-06-15 13:49:00,
2013-06-15 09:54:00,67.0,60.5,29.87,North,360,7.0,13.0,79,0.00,,,0.00,Rainwise IP-100,2013-06-15 13:54:00,
2013-06-15 09:59:00,67.0,60.5,29.87,NNE,22,9.0,10.0,79,0.00,,,0.00,Rainwise IP-100,2013-06-15 13:59:00,
2013-06-15 10:04:00,68.0,61.5,29.87,North,360,2.0,11.0,80,0.00,,,0.00,Rainwise IP-100,2013-06-15 14:04:00,
2013-06-15 10:09:00,68.0,61.5,29.87,NNW,337,6.0,9.0,80,0.00,,,0.00,Rainwise IP-100,2013-06-15 14:09:00,
2013-06-15 10:14:00,68.0,61.5,29.87,NW,315,5.0,12.0,80,0.00,,,0.00,Rainwise IP-100,2013-06-15 14:14:00,
2013-06-15 10:19:00,68.0,61.5,29.87,NNW,337,1.0,10.0,80,0.00,,,0.00,Rainwise IP-100,2013-06-15 14:19:00,
2013-06-15 10:25:00,68.0,61.5,29.87,NW,315,9.0,9.0,80,0.00,,,0.00,Rainwise IP-100,2013-06-15 14:25:00,
2013-06-15 10:30:00,69.0,62.5,29.87,North,360,10.0,10.0,80,0.00,,,0.00,Rainwise IP-100,2013-06-15 14:30:00,
2013-06-15 10:35:00,68.0,61.5,29.87,NE,45,3.0,11.0,80,0.00,,,0.00,Rainwise IP-100,2013-06-15 14:35:00,
2013-06-15 10:40:00,69.0,62.5,29.87,NNW,337,7.0,9.0,80,0.00,,,0.00,Rainwise IP-100,2013-06-15 14:40:00,
2013-06-15 10:45:00,68.0,61.5,29.87,North,360,5.0,13.0,80,0.00,,,0.00,Rainwise IP-100,2013-06-15 14:45:00,
2013-06-15 10:50:00,69.0,62.5,29.87,NNW,337,0.0,10.0,80,0.00,,,0.00,Rainwise IP-100,2013-06-15 14:50:00,
2013-06-15 10:55:00,69.0,62.5,29.87,North,360,4.0,9.0,80,0.00,,,0.00,Rainwise IP-100,2013-06-15 14:55:00,
2013-06-15 11:00:00,67.0,61.0,29.87,NNW,337,5.0,12.0,81,0.00,,,0.00,Rainwise IP-100,2013-06-15 15:00:00,
2013-06-15 11:05:00,68.0,62.0,29.88,North,360,0.0,10.0,81,0.00,,,0.00,Rainwise IP-100,2013-06-15 15:05:00,
2013-06-15 11:10:00,68.0,62.0,29.88,North,360,4.0,10.0,81,0.00,,,0.00,Rainwise IP-100,2013-06-15 15:10:00,
2013-06-15 11:15:00,68.0,62.0,29.88,NNW,337,7.0,12.0,81,0.00,,,0.00,Rainwise IP-100,2013-06-15 15:15:00,
2013-06-15 11:20:00,69.0,63.0,29.87,North,360,2.0,10.0,82,0.00,,,0.00,Rainwise IP-100,2013-06-15 15:20:00,
2013-06-15 11:25:00,69.0,63.0,29.87,NNW,337,6.0,9.0,81,0.00,,,0.00,Rainwise IP-100,2013-06-15 15:25:00,
2013-06-15 11:30:00,69.0,63.0,29.87,North,360,3.0,10.0,82,0.00,,,0.00,Rainwise IP-100,2013-06-15 15:30:00,
2013-06-15 11:35:00,69.0,63.0,29.87,NNE,22,7.0,10.0,81,0.00,,,0.00,Rainwise IP-100,2013-06-15 15:35:00,
2013-06-15 11:41:00,68.0,62.5,29.88,NNE,22,7.0,11.0,82,0.00,,,0.00,Rainwise IP-100,2013-06-15 15:41:00,
2013-06-15 11:46:00,69.0,63.0,29.88,NNW,337,0.0,10.0,81,0.00,,,0.00,Rainwise IP-100,2013-06-15 15:46:00,
2013-06-15 11:51:00,68.0,62.5,29.88,NNW,337,8.0,12.0,82,0.00,,,0.00,Rainwise IP-100,2013-06-15 15:51:00,
2013-06-15 11:56:00,69.0,63.0,29.88,North,360,6.0,13.0,81,0.00,,,0.00,Rainwise IP-100,2013-06-15 15:56:00,
2013-06-15 12:01:00,69.0,63.0,29.87,North,360,6.0,11.0,82,0.00,,,0.00,Rainwise IP-100,2013-06-15 16:01:00,
2013-06-15 12:06:00,69.0,63.0,29.87,North,360,4.0,12.0,81,0.00,,,0.00,Rainwise IP-100,2013-06-15 16:06:00,
2013-06-15 12:11:00,70.0,64.5,29.87,NNW,337,6.0,10.0,83,0.00,,,0.00,Rainwise IP-100,2013-06-15 16:11:00,
2013-06-15 12:16:00,70.0,64.5,29.87,NNE,22,4.0,10.0,82,0.00,,,0.00,Rainwise IP-100,2013-06-15 16:16:00,
2013-06-15 12:20:00,69.0,63.5,29.87,North,360,10.0,12.0,83,0.00,,,0.00,Rainwise IP-100,2013-06-15 16:20:00,
2013-06-15 12:25:00,69.0,63.0,29.87,North,360,8.0,11.0,81,0.00,,,0.00,Rainwise IP-100,2013-06-15 16:25:00,
2013-06-15 12:31:00,70.0,64.5,29.87,ENE,67,7.0,10.0,83,0.00,,,0.00,Rainwise IP-100,2013-06-15 16:31:00,
2013-06-15 12:36:00,68.0,62.0,29.87,NNE,22,7.0,9.0,81,0.00,,,0.00,Rainwise IP-100,2013-06-15 16:36:00,
2013-06-15 12:41:00,69.0,63.5,29.88,NNE,22,7.0,8.0,83,0.00,,,0.00,Rainwise IP-100,2013-06-15 16:41:00,
2013-06-15 12:46:00,67.0,61.5,29.88,NNE,22,7.0,9.0,82,0.00,,,0.00,Rainwise IP-100,2013-06-15 16:46:00,
2013-06-15 12:51:00,69.0,63.5,29.87,NNE,22,5.0,8.0,83,0.00,,,0.00,Rainwise IP-100,2013-06-15 16:51:00,
2013-06-15 12:56:00,68.0,62.5,29.87,NNE,22,2.0,9.0,82,0.00,,,0.00,Rainwise IP-100,2013-06-15 16:56:00,
2013-06-15 13:01:00,70.0,65.0,29.87,NE,45,4.0,7.0,84,0.00,,,0.00,Rainwise IP-100,2013-06-15 17:01:00,
2013-06-15 13:06:00,70.0,64.5,29.87,NE,45,5.0,6.0,83,0.00,,,0.00,Rainwise IP-100,2013-06-15 17:06:00,
2013-06-15 13:11:00,71.0,66.0,29.87,West,270,0.0,8.0,84,0.00,,,0.00,Rainwise IP-100,2013-06-15 17:11:00,
2013-06-15 13:16:00,71.0,65.5,29.87,NNE,22,5.0,7.0,83,0.00,,,0.00,Rainwise IP-100,2013-06-15 17:16:00,
2013-06-15 13:21:00,71.0,66.0,29.87,NE,45,0.0,7.0,84,0.00,,,0.00,Rainwise IP-100,2013-06-15 17:21:00,
2013-06-15 13:26:00,71.0,65.5,29.87,ENE,67,0.0,5.0,83,0.00,,,0.00,Rainwise IP-100,2013-06-15 17:26:00,
2013-06-15 13:31:00,71.0,65.5,29.87,NNE,22,0.0,4.0,83,0.00,,,0.00,Rainwise IP-100,2013-06-15 17:31:00,
2013-06-15 13:36:00,69.0,63.0,29.87,ESE,112,7.0,7.0,82,0.00,,,0.00,Rainwise IP-100,2013-06-15 17:36:00,
2013-06-15 13:41:00,70.0,64.5,29.88,SE,135,0.0,7.0,83,0.00,,,0.00,Rainwise IP-100,2013-06-15 17:41:00,
2013-06-15 13:47:00,71.0,65.5,29.88,East,90,6.0,6.0,83,0.00,,,0.00,Rainwise IP-100,2013-06-15 17:47:00,
2013-06-15 13:52:00,71.0,65.5,29.86,North,360,4.0,7.0,83,0.00,,,0.00,Rainwise IP-100,2013-06-15 17:52:00,
2013-06-15 13:57:00,72.0,66.7,29.86,NNE,22,0.0,7.0,83,0.00,,,0.00,Rainwise IP-100,2013-06-15 17:57:00,
2013-06-15 14:02:00,73.0,67.5,29.86,South,180,0.0,6.0,83,0.00,,,0.00,Rainwise IP-100,2013-06-15 18:02:00,
2013-06-15 14:07:00,73.0,67.5,29.86,SW,225,4.0,8.0,83,0.00,,,0.00,Rainwise IP-100,2013-06-15 18:07:00,
2013-06-15 14:12:00,72.0,66.7,29.87,WSW,247,7.0,11.0,83,0.00,,,0.00,Rainwise IP-100,2013-06-15 18:12:00,
2013-06-15 14:17:00,71.0,65.5,29.87,South,180,0.0,10.0,83,0.00,,,0.00,Rainwise IP-100,2013-06-15 18:17:00,
2013-06-15 14:22:00,71.0,66.0,29.88,SSW,202,2.0,12.0,84,0.00,,,0.00,Rainwise IP-100,2013-06-15 18:22:00,
2013-06-15 14:27:00,71.0,66.0,29.88,South,180,1.0,13.0,84,0.00,,,0.00,Rainwise IP-100,2013-06-15 18:27:00,
2013-06-15 14:32:00,71.0,66.0,29.88,SE,135,6.0,12.0,84,0.00,,,0.00,Rainwise IP-100,2013-06-15 18:32:00,
2013-06-15 14:37:00,71.0,66.0,29.88,SW,225,3.0,10.0,84,0.00,,,0.00,Rainwise IP-100,2013-06-15 18:37:00,
2013-06-15 14:42:00,70.0,65.0,29.88,SW,225,6.0,9.0,84,0.00,,,0.00,Rainwise IP-100,2013-06-15 18:42:00,
2013-06-15 14:47:00,70.0,65.0,29.88,SW,225,9.0,11.0,84,0.00,,,0.00,Rainwise IP-100,2013-06-15 18:47:00,
2013-06-15 14:52:00,70.0,65.0,29.88,WSW,247,0.0,12.0,84,0.00,,,0.00,Rainwise IP-100,2013-06-15 18:52:00,
2013-06-15 14:57:00,71.0,66.0,29.88,SSW,202,2.0,12.0,84,0.00,,,0.00,Rainwise IP-100,2013-06-15 18:57:00,
2013-06-15 15:03:00,71.0,66.0,29.88,SE,135,6.0,10.0,84,0.00,,,0.00,Rainwise IP-100,2013-06-15 19:03:00,
2013-06-15 15:08:00,71.0,66.0,29.88,SW,225,5.0,11.0,84,0.00,,,0.00,Rainwise IP-100,2013-06-15 19:08:00,
2013-06-15 15:13:00,70.0,65.0,29.88,SSW,202,9.0,13.0,84,0.00,,,0.00,Rainwise IP-100,2013-06-15 19:13:00,
2013-06-15 15:18:00,69.0,63.5,29.88,WSW,247,4.0,11.0,83,0.00,,,0.00,Rainwise IP-100,2013-06-15 19:18:00,
2013-06-15 15:23:00,69.0,63.5,29.88,SW,225,9.0,14.0,83,0.00,,,0.00,Rainwise IP-100,2013-06-15 19:23:00,
2013-06-15 15:28:00,70.0,65.0,29.88,WSW,247,4.0,13.0,84,0.00,,,0.00,Rainwise IP-100,2013-06-15 19:28:00,
2013-06-15 15:33:00,69.0,63.5,29.88,SW,225,8.0,10.0,83,0.00,,,0.00,Rainwise IP-100,2013-06-15 19:33:00,
2013-06-15 15:38:00,68.0,62.5,29.88,WSW,247,10.0,14.0,83,0.00,,,0.00,Rainwise IP-100,2013-06-15 19:38:00,
2013-06-15 15:43:00,69.0,63.5,29.88,SW,225,3.0,11.0,83,0.00,,,0.00,Rainwise IP-100,2013-06-15 19:43:00,
2013-06-15 15:48:00,68.0,62.5,29.88,SSW,202,9.0,14.0,83,0.00,,,0.00,Rainwise IP-100,2013-06-15 19:48:00,
2013-06-15 15:53:00,69.0,63.5,29.88,South,180,1.0,14.0,83,0.00,,,0.00,Rainwise IP-100,2013-06-15 19:53:00,
2013-06-15 15:58:00,70.0,65.0,29.88,SSW,202,7.0,9.0,84,0.00,,,0.00,Rainwise IP-100,2013-06-15 19:58:00,
2013-06-15 16:03:00,70.0,65.0,29.88,SW,225,4.0,12.0,84,0.00,,,0.00,Rainwise IP-100,2013-06-15 20:03:00,
2013-06-15 16:08:00,69.0,63.5,29.88,SW,225,5.0,14.0,83,0.00,,,0.00,Rainwise IP-100,2013-06-15 20:08:00,
2013-06-15 16:13:00,69.0,63.5,29.87,SW,225,6.0,10.0,83,0.00,,,0.00,Rainwise IP-100,2013-06-15 20:13:00,
2013-06-15 16:19:00,69.0,63.5,29.87,SSW,202,6.0,11.0,83,0.00,,,0.00,Rainwise IP-100,2013-06-15 20:19:00,
2013-06-15 16:24:00,69.0,63.5,29.87,SW,225,5.0,10.0,83,0.00,,,0.00,Rainwise IP-100,2013-06-15 20:24:00,
2013-06-15 16:29:00,68.0,62.5,29.87,SW,225,8.0,10.0,83,0.00,,,0.00,Rainwise IP-100,2013-06-15 20:29:00,
2013-06-15 16:34:00,69.0,63.5,29.87,SW,225,6.0,10.0,83,0.00,,,0.00,Rainwise IP-100,2013-06-15 20:34:00,
2013-06-15 16:39:00,69.0,63.5,29.87,SW,225,9.0,10.0,83,0.00,,,0.00,Rainwise IP-100,2013-06-15 20:39:00,
2013-06-15 16:44:00,68.0,62.5,29.87,SW,225,6.0,12.0,83,0.00,,,0.00,Rainwise IP-100,2013-06-15 20:44:00,
2013-06-15 16:49:00,68.0,62.5,29.87,SW,225,8.0,13.0,83,0.00,,,0.00,Rainwise IP-100,2013-06-15 20:49:00,
2013-06-15 16:54:00,69.0,63.5,29.88,SW,225,6.0,9.0,83,0.00,,,0.00,Rainwise IP-100,2013-06-15 20:54:00,
2013-06-15 16:59:00,69.0,63.5,29.88,SW,225,6.0,11.0,83,0.00,,,0.00,Rainwise IP-100,2013-06-15 20:59:00,
2013-06-15 17:04:00,69.0,63.5,29.88,SSW,202,0.0,13.0,83,0.00,,,0.00,Rainwise IP-100,2013-06-15 21:04:00,
2013-06-15 17:09:00,70.0,65.0,29.88,SW,225,3.0,11.0,84,0.00,,,0.00,Rainwise IP-100,2013-06-15 21:09:00,
2013-06-15 17:14:00,70.0,65.0,29.86,SSW,202,4.0,11.0,84,0.00,,,0.00,Rainwise IP-100,2013-06-15 21:14:00,
2013-06-15 17:19:00,69.0,63.5,29.86,SW,225,2.0,15.0,83,0.00,,,0.00,Rainwise IP-100,2013-06-15 21:19:00,
2013-06-15 17:24:00,70.0,65.0,29.87,SW,225,6.0,10.0,84,0.00,,,0.00,Rainwise IP-100,2013-06-15 21:24:00,
2013-06-15 17:29:00,70.0,65.0,29.87,West,270,2.0,11.0,84,0.00,,,0.00,Rainwise IP-100,2013-06-15 21:29:00,
2013-06-15 17:35:00,69.0,63.5,29.86,SW,225,8.0,11.0,83,0.00,,,0.00,Rainwise IP-100,2013-06-15 21:35:00,
2013-06-15 17:40:00,69.0,63.5,29.86,SW,225,6.0,12.0,83,0.00,,,0.00,Rainwise IP-100,2013-06-15 21:40:00,
2013-06-15 17:45:00,68.0,62.5,29.87,SW,225,7.0,10.0,83,0.00,,,0.00,Rainwise IP-100,2013-06-15 21:45:00,
2013-06-15 17:50:00,68.0,62.5,29.87,SW,225,3.0,13.0,83,0.00,,,0.00,Rainwise IP-100,2013-06-15 21:50:00,
2013-06-15 17:55:00,68.0,62.5,29.88,SW,225,1.0,12.0,83,0.00,,,0.00,Rainwise IP-100,2013-06-15 21:55:00,
2013-06-15 18:00:00,67.0,62.0,29.88,SSW,202,6.0,12.0,83,0.00,,,0.00,Rainwise IP-100,2013-06-15 22:00:00,
2013-06-15 18:05:00,67.0,62.0,29.88,SW,225,1.0,10.0,83,0.00,,,0.00,Rainwise IP-100,2013-06-15 22:05:00,
2013-06-15 18:10:00,67.0,62.0,29.88,SSW,202,6.0,10.0,83,0.00,,,0.00,Rainwise IP-100,2013-06-15 22:10:00,
2013-06-15 18:15:00,67.0,62.0,29.88,SW,225,3.0,12.0,83,0.00,,,0.00,Rainwise IP-100,2013-06-15 22:15:00,
2013-06-15 18:20:00,66.0,60.5,29.88,SW,225,8.0,12.0,83,0.00,,,0.00,Rainwise IP-100,2013-06-15 22:20:00,
2013-06-15 18:25:00,66.0,60.0,29.89,South,180,0.0,11.0,82,0.00,,,0.00,Rainwise IP-100,2013-06-15 22:25:00,
2013-06-15 18:30:00,66.0,60.5,29.89,SW,225,7.0,10.0,83,0.00,,,0.00,Rainwise IP-100,2013-06-15 22:30:00,
2013-06-15 18:35:00,66.0,60.0,29.89,SW,225,6.0,11.0,82,0.00,,,0.00,Rainwise IP-100,2013-06-15 22:35:00,
2013-06-15 18:40:00,66.0,60.5,29.89,SW,225,9.0,11.0,83,0.00,,,0.00,Rainwise IP-100,2013-06-15 22:40:00,
2013-06-15 18:46:00,66.0,60.0,29.89,SSW,202,0.0,10.0,82,0.00,,,0.00,Rainwise IP-100,2013-06-15 22:46:00,
2013-06-15 18:51:00,66.0,60.5,29.89,SW,225,2.0,10.0,83,0.00,,,0.00,Rainwise IP-100,2013-06-15 22:51:00,
2013-06-15 18:56:00,66.0,60.0,29.89,SW,225,0.0,8.0,82,0.00,,,0.00,Rainwise IP-100,2013-06-15 22:56:00,
2013-06-15 19:01:00,66.0,60.5,29.89,SW,225,1.0,8.0,83,0.00,,,0.00,Rainwise IP-100,2013-06-15 23:01:00,
2013-06-15 19:06:00,65.0,59.5,29.89,SW,225,6.0,10.0,82,0.00,,,0.00,Rainwise IP-100,2013-06-15 23:06:00,
2013-06-15 19:11:00,65.0,59.5,29.90,SW,225,5.0,10.0,83,0.00,,,0.00,Rainwise IP-100,2013-06-15 23:11:00,
2013-06-15 19:16:00,64.0,58.0,29.90,WSW,247,2.0,10.0,82,0.00,,,0.00,Rainwise IP-100,2013-06-15 23:16:00,
2013-06-15 19:21:00,65.0,59.5,29.90,SW,225,2.0,6.0,83,0.00,,,0.00,Rainwise IP-100,2013-06-15 23:21:00,
2013-06-15 19:26:00,65.0,59.5,29.90,SW,225,3.0,9.0,82,0.00,,,0.00,Rainwise IP-100,2013-06-15 23:26:00,
2013-06-15 19:31:00,64.0,59.0,29.90,SW,225,3.0,8.0,83,0.00,,,0.00,Rainwise IP-100,2013-06-15 23:31:00,
2013-06-15 19:36:00,64.0,58.0,29.90,SSW,202,3.0,9.0,82,0.00,,,0.00,Rainwise IP-100,2013-06-15 23:36:00,
2013-06-15 19:41:00,64.0,58.0,29.90,SSW,202,1.0,9.0,81,0.00,,,0.00,Rainwise IP-100,2013-06-15 23:41:00,
2013-06-15 19:46:00,64.0,58.0,29.90,SW,225,0.0,7.0,81,0.00,,,0.00,Rainwise IP-100,2013-06-15 23:46:00,
2013-06-15 19:51:00,63.0,56.5,29.90,SSW,202,0.0,9.0,80,0.00,,,0.00,Rainwise IP-100,2013-06-15 23:51:00,
2013-06-15 19:57:00,63.0,56.5,29.90,WSW,247,3.0,11.0,80,0.00,,,0.00,Rainwise IP-100,2013-06-15 23:57:00,
2013-06-15 20:02:00,63.0,56.5,29.90,South,180,0.0,8.0,80,0.00,,,0.00,Rainwise IP-100,2013-06-16 00:02:00,
2013-06-15 20:07:00,63.0,56.5,29.90,SE,135,2.0,8.0,80,0.00,,,0.00,Rainwise IP-100,2013-06-16 00:07:00,
2013-06-15 20:12:00,62.0,56.0,29.91,SW,225,6.0,8.0,80,0.00,,,0.00,Rainwise IP-100,2013-06-16 00:12:00,
2013-06-15 20:17:00,62.0,55.0,29.91,SSW,202,9.0,9.0,79,0.00,,,0.00,Rainwise IP-100,2013-06-16 00:17:00,
2013-06-15 20:22:00,61.0,54.5,29.90,SW,225,4.0,10.0,79,0.00,,,0.00,Rainwise IP-100,2013-06-16 00:22:00,
2013-06-15 20:27:00,61.0,54.0,29.90,SSW,202,3.0,11.0,78,0.00,,,0.00,Rainwise IP-100,2013-06-16 00:27:00,
2013-06-15 20:32:00,61.0,54.0,29.91,SW,225,2.0,8.0,78,0.00,,,0.00,Rainwise IP-100,2013-06-16 00:32:00,
2013-06-15 20:37:00,61.0,54.0,29.91,SW,225,6.0,10.0,77,0.00,,,0.00,Rainwise IP-100,2013-06-16 00:37:00,
2013-06-15 20:42:00,61.0,54.0,29.91,SW,225,0.0,7.0,77,0.00,,,0.00,Rainwise IP-100,2013-06-16 00:42:00,
2013-06-15 20:47:00,61.0,54.0,29.91,SW,225,3.0,9.0,77,0.00,,,0.00,Rainwise IP-100,2013-06-16 00:47:00,
2013-06-15 20:52:00,60.0,53.0,29.91,SW,225,8.0,9.0,77,0.00,,,0.00,Rainwise IP-100,2013-06-16 00:52:00,
2013-06-15 20:57:00,60.0,53.0,29.91,SW,225,2.0,10.0,76,0.00,,,0.00,Rainwise IP-100,2013-06-16 00:57:00,
2013-06-15 21:02:00,60.0,53.0,29.92,WSW,247,1.0,7.0,76,0.00,,,0.00,Rainwise IP-100,2013-06-16 01:02:00,
2013-06-15 21:07:00,60.0,53.0,29.92,WSW,247,6.0,11.0,76,0.00,,,0.00,Rainwise IP-100,2013-06-16 01:07:00,
2013-06-15 21:13:00,60.0,53.0,29.92,SW,225,0.0,9.0,76,0.00,,,0.00,Rainwise IP-100,2013-06-16 01:13:00,
2013-06-15 21:18:00,60.0,52.0,29.92,SW,225,2.0,10.0,75,0.00,,,0.00,Rainwise IP-100,2013-06-16 01:18:00,
2013-06-15 21:23:00,60.0,53.0,29.92,South,180,0.0,7.0,76,0.00,,,0.00,Rainwise IP-100,2013-06-16 01:23:00,
2013-06-15 21:28:00,60.0,52.0,29.92,South,180,2.0,7.0,75,0.00,,,0.00,Rainwise IP-100,2013-06-16 01:28:00,
2013-06-15 21:33:00,60.0,53.0,29.93,WSW,247,2.0,7.0,76,0.00,,,0.00,Rainwise IP-100,2013-06-16 01:33:00,
2013-06-15 21:38:00,60.0,53.0,29.93,SSW,202,0.0,9.0,76,0.00,,,0.00,Rainwise IP-100,2013-06-16 01:38:00,
2013-06-15 21:43:00,60.0,53.0,29.93,SW,225,0.0,10.0,76,0.00,,,0.00,Rainwise IP-100,2013-06-16 01:43:00,
2013-06-15 21:48:00,60.0,53.0,29.93,SW,225,5.0,8.0,76,0.00,,,0.00,Rainwise IP-100,2013-06-16 01:48:00,
2013-06-15 21:53:00,60.0,53.0,29.94,SSW,202,0.0,7.0,76,0.00,,,0.00,Rainwise IP-100,2013-06-16 01:53:00,
2013-06-15 21:58:00,60.0,53.0,29.94,SW,225,4.0,7.0,76,0.00,,,0.00,Rainwise IP-100,2013-06-16 01:58:00,
2013-06-15 22:03:00,60.0,52.0,29.94,West,270,0.0,8.0,75,0.00,,,0.00,Rainwise IP-100,2013-06-16 02:03:00,
2013-06-15 22:08:00,60.0,52.0,29.94,SW,225,0.0,8.0,75,0.00,,,0.00,Rainwise IP-100,2013-06-16 02:08:00,
2013-06-15 22:13:00,60.0,52.0,29.94,WSW,247,0.0,6.0,75,0.00,,,0.00,Rainwise IP-100,2013-06-16 02:13:00,
2013-06-15 22:18:00,60.0,52.0,29.94,SSW,202,2.0,6.0,75,0.00,,,0.00,Rainwise IP-100,2013-06-16 02:18:00,
2013-06-15 22:23:00,60.0,52.0,29.94,SW,225,0.0,7.0,75,0.00,,,0.00,Rainwise IP-100,2013-06-16 02:23:00,
2013-06-15 22:29:00,60.0,52.0,29.94,SSE,157,2.0,7.0,75,0.00,,,0.00,Rainwise IP-100,2013-06-16 02:29:00,
2013-06-15 22:34:00,60.0,52.0,29.94,South,180,0.0,9.0,75,0.00,,,0.00,Rainwise IP-100,2013-06-16 02:34:00,
2013-06-15 22:39:00,60.0,52.0,29.94,South,180,0.0,6.0,75,0.00,,,0.00,Rainwise IP-100,2013-06-16 02:39:00,
2013-06-15 22:44:00,60.0,52.0,29.94,WSW,247,4.0,9.0,75,0.00,,,0.00,Rainwise IP-100,2013-06-16 02:44:00,
2013-06-15 22:49:00,60.0,52.0,29.94,South,180,1.0,7.0,75,0.00,,,0.00,Rainwise IP-100,2013-06-16 02:49:00,
2013-06-15 22:54:00,60.0,52.0,29.94,SW,225,1.0,9.0,75,0.00,,,0.00,Rainwise IP-100,2013-06-16 02:54:00,
2013-06-15 22:59:00,59.0,50.5,29.94,WSW,247,2.0,9.0,74,0.00,,,0.00,Rainwise IP-100,2013-06-16 02:59:00,
2013-06-15 23:04:00,59.0,51.0,29.94,WNW,292,0.0,10.0,75,0.00,,,0.00,Rainwise IP-100,2013-06-16 03:04:00,
2013-06-15 23:09:00,59.0,50.5,29.94,South,180,0.0,12.0,74,0.00,,,0.00,Rainwise IP-100,2013-06-16 03:09:00,
2013-06-15 23:14:00,59.0,50.5,29.94,SW,225,5.0,7.0,74,0.00,,,0.00,Rainwise IP-100,2013-06-16 03:14:00,
2013-06-15 23:19:00,59.0,50.5,29.94,SW,225,1.0,10.0,74,0.00,,,0.00,Rainwise IP-100,2013-06-16 03:19:00,
2013-06-15 23:24:00,59.0,50.5,29.96,NNW,337,0.0,10.0,74,0.00,,,0.00,Rainwise IP-100,2013-06-16 03:24:00,
2013-06-15 23:29:00,59.0,50.5,29.96,West,270,0.0,8.0,74,0.00,,,0.00,Rainwise IP-100,2013-06-16 03:29:00,
2013-06-15 23:34:00,59.0,50.5,29.96,West,270,3.0,7.0,74,0.00,,,0.00,Rainwise IP-100,2013-06-16 03:34:00,
2013-06-15 23:40:00,59.0,50.5,29.96,SW,225,1.0,9.0,73,0.00,,,0.00,Rainwise IP-100,2013-06-16 03:40:00,
2013-06-15 23:45:00,59.0,50.5,29.96,SW,225,5.0,7.0,73,0.00,,,0.00,Rainwise IP-100,2013-06-16 03:45:00,
2013-06-15 23:50:00,59.0,50.5,29.96,West,270,1.0,9.0,73,0.00,,,0.00,Rainwise IP-100,2013-06-16 03:50:00,
2013-06-15 23:55:00,59.0,50.5,29.96,SW,225,5.0,9.0,73,0.00,,,0.00,Rainwise IP-100,2013-06-16 03:55:00,